Location: Potomac
(46.8816°N, 113.5795°W)
Time: 19:40:50
(UTC+00:00)

SEEDS - Pass Details

Date: 09 July 2022
Orbit: 579 x 598 km, 97.6° (Epoch: 08 August)

Event Time Altitude Azimuth Distance (km) Brightness Sun altitude
Rises 10:49:20 0° 28° (NNE) 2,810 ? -8.6°
Reaches altitude 10° 10:52:05 10° 47° (NE) 1,904 ? -8.3°
Maximum altitude 10:54:57 18° 91° (E) 1,447 ? -8.0°
Drops below altitude 10° 10:57:48 10° 136° (SE) 1,894 ? -7.6°
Sets 11:00:31 0° 155° (SSE) 2,789 ? -7.3°
